CW8198 Weather Reports


time (UTC)temp
C
wind
direction
speed
KPH
gust
KPH
rain 1hr
cm
rain 24hr
cm
rain mn
cm
humidity
%
barometer
mb
20260506051110 6 22 0.0 3.2 0.00 0.05 0.00 58 1015.3
20260506050611 6 334 1.6 3.2 0.00 0.08 0.00 58 1015.4
20260506050111 6 9 1.6 3.2 0.00 0.08 0.00 58 1015.2
20260506045109 7 9 1.6 3.2 0.00 0.10 0.08 57 1015.2
20260506044609 7 338 1.6 3.2 0.00 0.10 0.08 57 1015.2
20260506044108 7 325 1.6 3.2 0.00 0.13 0.08 56 1015.1
20260506043608 7 309 1.6 3.2 0.00 0.15 0.08 55 1015.0
20260506043108 7 9 1.6 3.2 0.00 0.15 0.08 55 1015.0
20260506042608 7 309 1.6 3.2 0.00 0.15 0.08 55 1015.0
20260506042108 7 279 1.6 3.2 0.00 0.15 0.08 54 1014.8
20260506041606 7 334 1.6 4.8 0.00 0.15 0.08 53 1014.9
20260506041109 7 330 1.6 4.8 0.00 0.15 0.08 52 1014.8
20260506040606 7 325 1.6 4.8 0.00 0.15 0.08 52 1014.9
20260506040106 7 265 3.2 8.0 0.00 0.15 0.08 52 1014.8
20260506035606 8 30 3.2 8.0 0.00 0.15 0.08 51 1014.7
20260506035105 8 9 3.2 8.0 0.00 0.15 0.08 51 1014.9
20260506034605 8 309 3.2 8.0 0.00 0.15 0.08 51 1014.8
20260506034105 8 334 3.2 6.4 0.00 0.15 0.08 51 1014.8
20260506033105 8 9 3.2 12.9 0.00 0.15 0.08 50 1014.8
20260506032604 8 330 3.2 12.9 0.00 0.15 0.08 49 1014.6
20260506032103 8 16 3.2 8.0 0.00 0.15 0.08 49 1014.6
20260506031105 8 9 3.2 8.0 0.00 0.15 0.08 49 1014.4
20260506030602 8 9 4.8 11.3 0.00 0.15 0.08 48 1014.3
20260506030103 8 330 4.8 11.3 0.00 0.15 0.08 48 1014.2
20260506025603 8 339 4.8 8.0 0.00 0.15 0.08 48 1014.2
20260506025102 8 321 4.8 9.7 0.00 0.15 0.08 48 1014.1
20260506024601 9 338 3.2 9.7 0.00 0.15 0.08 47 1014.2
20260506023601 9 15 6.4 12.9 0.00 0.15 0.08 46 1014.1
20260506023100 9 41 4.8 11.3 0.00 0.15 0.08 45 1014.0
20260506022600 9 9 4.8 9.7 0.00 0.15 0.08 46 1014.0
20260506022100 9 346 6.4 9.7 0.00 0.15 0.08 45 1013.8
20260506021601 10 298 6.4 16.1 0.00 0.15 0.08 44 1013.8
20260506021059 10 9 8.0 16.1 0.00 0.15 0.08 44 1013.7
20260506020559 10 334 6.4 16.1 0.00 0.15 0.08 44 1013.6
20260506020058 10 325 6.4 16.1 0.00 0.15 0.08 44 1013.6
20260506015558 10 13 4.8 14.5 0.00 0.15 0.08 43 1013.6
20260506015057 10 29 4.8 14.5 0.00 0.15 0.08 43 1013.5
20260506014556 10 325 6.4 14.5 0.00 0.15 0.08 42 1013.4
20260506014056 10 32 6.4 17.7 0.00 0.15 0.08 43 1013.3
20260506013557 10 286 6.4 17.7 0.00 0.15 0.08 42 1013.1
20260506013056 10 24 8.0 16.1 0.00 0.15 0.08 42 1013.1
20260506012556 10 340 8.0 20.9 0.00 0.15 0.08 42 1013.1
20260506012056 10 328 9.7 20.9 0.00 0.15 0.08 41 1013.0
20260506011557 11 348 6.4 17.7 0.00 0.15 0.08 42 1012.9
20260506011054 11 341 8.0 19.3 0.00 0.15 0.08 42 1013.0
20260506010554 11 11 9.7 19.3 0.00 0.15 0.08 41 1012.9
20260506010054 11 346 8.0 22.5 0.00 0.15 0.08 40 1012.9
20260506005554 11 342 11.3 24.1 0.00 0.15 0.08 40 1012.9
20260506004553 11 327 14.5 24.1 0.00 0.15 0.08 40 1012.9
20260506004053 11 305 11.3 20.9 0.00 0.15 0.08 40 1012.7
20260506003553 11 342 8.0 24.1 0.00 0.15 0.08 41 1012.7
20260506003053 11 336 9.7 24.1 0.00 0.15 0.08 39 1012.6
20260506002552 11 18 12.9 25.7 0.00 0.15 0.08 39 1012.7
20260506002054 11 22 12.9 27.4 0.00 0.15 0.08 39 1012.6
20260506001550 11 325 17.7 27.4 0.00 0.15 0.08 39 1012.6
20260506001050 11 342 11.3 22.5 0.00 0.15 0.08 40 1012.5
20260506000550 12 13 8.0 22.5 0.00 0.15 0.08 40 1012.5
20260505235549 12 23 9.7 24.1 0.00 0.15 0.08 40 1012.6
20260505235049 12 18 12.9 24.1 0.00 0.15 0.08 40 1012.5
20260505234048 12 205 9.7 25.7 0.00 0.15 0.08 39 1012.4
20260505232044 12 30 16.1 22.5 0.00 0.15 0.08 38 1012.3
20260505231542 12 11 11.3 25.7 0.00 0.15 0.08 39 1012.3
20260505231041 12 13 14.5 30.6 0.00 0.15 0.08 39 1012.3
20260505230541 13 11 9.7 30.6 0.00 0.15 0.08 39 1012.2
20260505230040 13 347 11.3 29.0 0.00 0.15 0.08 39 1012.3
20260505225540 13 351 12.9 32.2 0.00 0.15 0.08 38 1012.2
20260505225040 14 303 16.1 32.2 0.00 0.15 0.08 38 1012.1
20260505224539 14 9 6.4 20.9 0.00 0.15 0.08 38 1012.1
20260505224039 15 325 4.8 24.1 0.00 0.15 0.08 39 1012.0
20260505223540 15 301 11.3 24.1 0.00 0.15 0.08 39 1012.0
20260505223038 15 312 8.0 24.1 0.00 0.15 0.08 39 1012.0
20260505222039 15 275 6.4 22.5 0.00 0.15 0.08 38 1012.0
20260505221537 15 287 6.4 17.7 0.00 0.15 0.08 41 1012.0
20260505221037 14 338 6.4 19.3 0.00 0.15 0.08 40 1012.0
20260505220535 14 303 6.4 22.5 0.00 0.15 0.08 40 1011.9
20260505220035 14 9 11.3 22.5 0.00 0.15 0.08 41 1011.9
20260505215534 14 277 8.0 17.7 0.00 0.15 0.08 39 1011.8
20260505215032 14 257 6.4 22.5 0.00 0.15 0.08 38 1011.9
20260505214032 14 300 9.7 24.1 0.00 0.15 0.08 38 1011.9
20260505213532 15 297 12.9 24.1 0.00 0.15 0.08 38 1012.0
20260505213032 15 332 11.3 20.9 0.00 0.15 0.08 37 1012.0
20260505212532 15 350 6.4 22.5 0.00 0.15 0.08 41 1012.0
20260505212033 14 268 9.7 22.5 0.00 0.15 0.08 42 1012.2
20260505211531 14 16 4.8 25.7 0.00 0.15 0.08 41 1012.2
20260505211031 14 323 8.0 25.7 0.00 0.15 0.08 39 1012.1
20260505210531 14 314 14.5 25.7 0.00 0.15 0.08 41 1012.2
20260505210030 14 32 9.7 29.0 0.00 0.15 0.08 40 1012.3
20260505205529 14 15 17.7 29.0 0.00 0.15 0.08 40 1012.4
20260505205029 15 10 11.3 22.5 0.00 0.15 0.08 41 1012.4
20260505204528 15 57 9.7 22.5 0.00 0.15 0.08 39 1012.5
20260505204028 15 336 6.4 24.1 0.00 0.15 0.08 41 1012.5
20260505203528 15 346 14.5 24.1 0.00 0.15 0.08 39 1012.5
20260505203028 15 328 6.4 16.1 0.00 0.15 0.08 40 1012.6
20260505202527 15 344 9.7 22.5 0.00 0.15 0.08 39 1012.6
20260505202029 15 292 8.0 24.1 0.00 0.15 0.08 39 1012.6
20260505200525 16 325 9.7 25.7 0.00 0.15 0.08 39 1012.7
20260505200025 16 350 9.7 20.9 0.00 0.15 0.08 41 1012.7
20260505195524 16 339 8.0 30.6 0.00 0.15 0.08 41 1012.7
20260505195024 16 16 11.3 30.6 0.00 0.15 0.08 39 1012.7
20260505194524 16 311 8.0 25.7 0.00 0.15 0.08 41 1012.6
20260505194024 15 342 6.4 25.7 0.00 0.15 0.08 43 1012.8
20260505193524 15 330 9.7 27.4 0.00 0.15 0.08 40 1012.8
20260505193022 15 13 12.9 29.0 0.00 0.15 0.08 39 1012.7
20260505192024 16 309 9.7 24.1 0.00 0.15 0.08 38 1012.9
20260505191522 16 11 8.0 17.7 0.00 0.15 0.08 40 1013.0
20260505191022 16 302 6.4 24.1 0.00 0.15 0.08 39 1013.0
20260505190522 16 334 9.7 24.1 0.00 0.15 0.08 39 1013.0
20260505190020 16 277 6.4 16.1 0.00 0.15 0.08 44 1013.1
20260505185520 16 303 8.0 20.9 0.00 0.15 0.08 44 1013.1
20260505185020 15 329 6.4 25.7 0.00 0.15 0.08 42 1013.1
20260505184520 15 38 11.3 27.4 0.00 0.15 0.08 42 1013.1
20260505184019 15 319 8.0 33.8 0.00 0.15 0.08 42 1013.1
20260505183518 15 334 17.7 33.8 0.00 0.15 0.08 40 1013.3
20260505183018 16 344 8.0 20.9 0.00 0.15 0.08 38 1013.3
20260505182518 16 306 6.4 25.7 0.00 0.15 0.08 44 1013.3
20260505182019 16 329 9.7 27.4 0.00 0.15 0.08 47 1013.4
20260505181517 16 329 9.7 27.4 0.00 0.15 0.08 43 1013.4
20260505181016 16 324 14.5 25.7 0.00 0.15 0.08 44 1013.4
20260505180514 16 11 9.7 27.4 0.00 0.15 0.08 43 1013.4
20260505180012 16 342 11.3 27.4 0.00 0.15 0.08 46 1013.5
20260505175512 16 346 14.5 27.4 0.00 0.15 0.08 43 1013.4
20260505175011 16 314 8.0 20.9 0.00 0.15 0.08 46 1013.3
20260505174511 16 309 6.4 20.9 0.00 0.15 0.08 45 1013.3
20260505173011 15 317 6.4 20.9 0.00 0.15 0.08 48 1013.5
20260505172509 14 9 11.3 20.9 0.00 0.15 0.08 53 1013.7
20260505172010 13 294 4.8 12.9 0.00 0.15 0.08 53 1013.6
20260505171509 13 51 1.6 11.3 0.00 0.15 0.08 47 1013.8
20260505171008 13 254 3.2 11.3 0.00 0.15 0.08 55 1013.7
20260505170508 13 286 3.2 11.3 0.00 0.15 0.08 53 1013.9
20260505170008 13 289 3.2 11.3 0.00 0.15 0.08 50 1013.9
20260505165507 13 286 6.4 11.3 0.00 0.15 0.08 52 1013.9
20260505165007 13 317 3.2 9.7 0.00 0.15 0.08 55 1013.9
20260505164506 13 325 4.8 9.7 0.00 0.15 0.08 53 1014.1
20260505163506 13 16 3.2 9.7 0.00 0.15 0.08 56 1014.0
20260505163005 12 281 3.2 12.9 0.00 0.15 0.08 60 1013.9
20260505162506 12 9 1.6 14.5 0.00 0.15 0.08 60 1013.7
20260505162005 12 338 3.2 14.5 0.00 0.15 0.08 62 1013.6
20260505161005 11 309 3.2 12.9 0.00 0.15 0.08 63 1013.6
20260505160503 11 279 3.2 12.9 0.00 0.15 0.08 65 1013.5
20260505153003 10 323 3.2 12.9 0.00 0.15 0.08 71 1013.4
20260505152002 9 247 3.2 12.9 0.00 0.15 0.08 72 1013.3
20260505151502 9 334 4.8 14.5 0.00 0.15 0.08 72 1013.3
20260505151001 9 334 4.8 14.5 0.00 0.15 0.08 74 1013.4
20260505150501 9 309 4.8 12.9 0.00 0.15 0.08 74 1013.1
20260505140459 7 282 3.2 9.7 0.00 0.15 0.08 83 1013.0
20260505124948 7 19 1.6 4.8 0.00 0.15 0.08 88 1011.8
20260505124448 7 334 1.6 4.8 0.00 0.15 0.08 89 1011.7
20260505122947 6 325 1.6 3.2 0.00 0.15 0.08 88 1011.4
20260505122447 6 275 0.0 3.2 0.00 0.15 0.08 88 1011.4
20260505121946 6 255 1.6 3.2 0.00 0.15 0.08 88 1011.2
20260505121446 6 338 0.0 3.2 0.00 0.15 0.08 88 1011.1
20260505120944 6 319 1.6 3.2 0.00 0.15 0.08 88 1010.9
20260505115944 6 229 1.6 3.2 0.00 0.15 0.08 88 1010.8
20260505115444 6 9 0.0 1.6 0.00 0.15 0.08 87 1010.6
20260505114442 6 319 1.6 3.2 0.00 0.15 0.08 87 1010.4
20260505113943 6 26 1.6 3.2 0.00 0.15 0.08 87 1010.3
20260505113442 6 9 0.0 1.6 0.00 0.15 0.08 87 1010.5
20260505112944 6 34 0.0 1.6 0.00 0.15 0.08 87 1010.4
20260505112443 6 51 0.0 1.6 0.00 0.15 0.08 87 1010.4
20260505111442 6 146 0.0 1.6 0.00 0.15 0.08 87 1010.5
20260505110941 6 9 0.0 1.6 0.00 0.15 0.08 87 1010.5
20260505110441 6 137 0.0 1.6 0.00 0.15 0.08 87 1010.6
20260505101923 7 9 1.6 3.2 0.00 0.15 0.08 88 1010.9
20260505101424 7 330 1.6 4.8 0.00 0.15 0.08 88 1010.8
20260505100422 7 34 1.6 3.2 0.00 0.15 0.08 88 1010.8
20260505095917 7 325 1.6 3.2 0.00 0.15 0.08 88 1010.8
20260505095416 7 291 0.0 3.2 0.00 0.15 0.08 88 1010.7
20260505094915 7 9 1.6 3.2 0.00 0.15 0.08 88 1010.5
20260505093916 7 265 1.6 3.2 0.00 0.15 0.08 88 1010.6
20260505093414 7 265 0.0 4.8 0.00 0.15 0.08 88 1010.4
20260505092913 7 309 1.6 6.4 0.00 0.15 0.08 88 1010.3
20260505092413 7 16 3.2 6.4 0.00 0.15 0.08 88 1010.2
20260505091914 7 346 3.2 6.4 0.00 0.15 0.08 88 1009.9
20260505085912 7 334 1.6 4.8 0.00 0.15 0.08 88 1009.8
20260505085414 7 282 1.6 4.8 0.00 0.15 0.08 88 1009.7
20260505084912 7 344 1.6 4.8 0.00 0.15 0.08 87 1009.8
20260505084412 7 337 3.2 4.8 0.00 0.15 0.08 87 1009.8
20260505083911 7 348 1.6 4.8 0.00 0.15 0.08 87 1009.7
20260505083410 8 282 1.6 3.2 0.00 0.15 0.08 87 1009.7
20260505082911 8 298 1.6 3.2 0.00 0.15 0.08 87 1009.5
20260505082410 8 319 1.6 4.8 0.00 0.15 0.08 87 1009.4
20260505081910 8 9 0.0 4.8 0.00 0.15 0.08 87 1009.3
20260505081409 8 309 1.6 3.2 0.00 0.15 0.08 87 1009.3
20260505080909 8 309 1.6 1.6 0.00 0.15 0.08 87 1009.1
20260505080411 8 325 0.0 3.2 0.00 0.15 0.08 87 1009.1
20260505075908 8 291 0.0 3.2 0.00 0.15 0.08 87 1008.9
20260505075408 8 338 1.6 3.2 0.00 0.15 0.08 87 1008.7
20260505074909 8 9 1.6 3.2 0.03 0.15 0.08 87 1008.9
20260505074407 8 342 1.6 3.2 0.03 0.15 0.08 87 1008.9
20260505073406 8 9 1.6 3.2 0.03 0.15 0.08 87 1009.0
20260505072908 8 9 1.6 3.2 0.03 0.15 0.08 86 1009.0
20260505072408 8 319 0.0 1.6 0.03 0.15 0.08 86 1009.0
20260505071906 8 221 0.0 3.2 0.03 0.15 0.08 86 1009.0
20260505071405 8 178 1.6 3.2 0.03 0.15 0.08 86 1008.9
20260505070906 8 238 1.6 4.8 0.03 0.15 0.08 86 1008.9
20260505065404 8 309 1.6 3.2 0.05 0.15 0.08 85 1008.5
20260505064903 8 9 1.6 3.2 0.03 0.13 0.05 85 1008.2
20260505064404 8 26 0.0 3.2 0.03 0.13 0.05 85 1008.6
20260505063903 8 9 1.6 3.2 0.03 0.13 0.05 84 1008.9
20260505063402 8 205 0.0 1.6 0.03 0.13 0.05 84 1008.7
20260505062903 8 309 0.0 3.2 0.03 0.13 0.05 84 1008.8
20260505062402 8 165 1.6 4.8 0.03 0.13 0.05 83 1008.7
20260505061901 8 93 1.6 4.8 0.03 0.13 0.05 83 1008.7
20260505061401 8 309 1.6 4.8 0.03 0.13 0.05 82 1009.2
20260505060903 8 282 3.2 4.8 0.03 0.13 0.05 82 1009.2